User: anonymous   Login
Location: Newark
(45.5000°N, 11.4167°E)
Time: 09:46:49
(UTC+00:00)
Language:

Vanguard 2 Rocket - Orbit

View from above orbital plane
View from above orbital plane
View from above satellite
View from above satellite

Ground track
Ground track

The orbit data is extracted from the following two-line orbital elements,

1    12U 59001B   19235.63948118 +.00000229 +00000-0 +11977-3 0  9999
2    12 032.9108 316.4409 1667344 304.9299 040.5535 11.44290572245741
Epoch (UTC): 23 August 2019 15:20:51
Eccentricity: 0.1667344
inclination: 32.9108°
perigee height: 553 km
apogee height: 3327 km
right ascension of ascending node: 316.4409°
argument of perigee: 304.9299°
revolutions per day: 11.44290572
mean anomaly at epoch: 40.5535°
orbit number at epoch: 24574

The dashed part of the orbit path shows where the satellite is in the earth's shadow,  

DLR